Regional Weather Roundup
Issued by NWS Mobile, AL

Home | Current Version | Previous Version | Text Only | Print | Product List | Glossary On
Versions: 1 2 3 4 5 6 7 8 9 10 11 12 13 14 15 16 17 18 19 20 21 22 23 24 25 26 27 28 29 30 31 32 33 34 35 36 37 38 39 40 41 42 43 44 45 46 47 48 49 50
000
ASUS44 KMOB 260012
RWRMOB
REGIONAL WEATHER ROUNDUP
NATIONAL WEATHER SERVICE MOBILE AL
600 PM CST SUN FEB 25 2018

NOTE: "FAIR" INDICATES FEW OR NO CLOUDS BELOW 12,000 FEET WITH NO
      SIGNIFICANT WEATHER AND/OR OBSTRUCTIONS TO VISIBILITY.

  * THESE STATIONS ARE PART OF THE UNIVERSITY OF SOUTH ALABAMA
    MESONET AND ARE NOT UNDER NWS OR FAA QUALITY CONTROL.

ALZ061>064-260100-
COASTAL ALABAMA

CITY           SKY/WX    TMP DP  RH WIND       PRES   REMARKS
MOBILE REG APT CLOUDY    66  59  78 E8        30.09R
6HR MIN TEMP:  63; 6HR MAX TEMP:  70;

BROOKLEY FIELD MOCLDY    67  62  84 E7        30.10R
6HR MIN TEMP:  65; 6HR MAX TEMP:  71;

USA CAMPUS*    NOT AVBL
DOG RIVER*     NOT AVBL


CITY           SKY/WX    TMP DP  RH WIND       PRES   REMARKS
GULF SHORES    FAIR      66  59  77 E7        30.09R

$$

ALZ051>060-260100-
INTERIOR SOUTHWEST AND SOUTH CENTRAL ALABAMA

CITY           SKY/WX    TMP DP  RH WIND       PRES   REMARKS
GREENVILLE     LGT RAIN  64  57  78 NW6       30.13R
6HR MIN TEMP:  62; 6HR MAX TEMP:  66; 6HR PCP: TRACE;

EVERGREEN      CLOUDY    65  60  84 NE3       30.13R
6HR MIN TEMP:  62; 6HR MAX TEMP:  68; 6HR PCP:  0.01;

ATMORE*          N/A     64  64 100 E5        30.85R
ANDALUSIA/OPP  FAIR      67  56  67 CALM      30.12R
6HR MIN TEMP:  67; 6HR MAX TEMP:  74; 6HR PCP: TRACE;

ANDALUSIA*       N/A     66  57  72 CALM      30.13R
FLORALA APT    FAIR      64  57  78 E3        30.14S
6HR MIN TEMP:  64; 6HR MAX TEMP:  72; 6HR PCP:  0.01;

FLORALA*         N/A     66  57  72 CALM      30.84S

$$

FLZ001>006-260100-
WESTERN FLORIDA PANHANDLE

CITY           SKY/WX    TMP DP  RH WIND       PRES   REMARKS
PENSACOLA      FAIR      70  58  65 NE5       30.10S
6HR MIN TEMP:  66; 6HR MAX TEMP:  73;

NAS PENSACOLA  PTCLDY    69  57  65 NE9       30.08F
6HR MIN TEMP:  67; 6HR MAX TEMP:  73; 6HR PCP: TRACE;

MILTON         CLOUDY    67  59  75 E7        30.11S
6HR MIN TEMP:  64; 6HR MAX TEMP:  72;

WHTNG S FIELD  MOCLDY    69  59  70 E9        30.11S
6HR MIN TEMP:  64; 6HR MAX TEMP:  72; 6HR PCP: TRACE;



CITY           SKY/WX    TMP DP  RH WIND       PRES   REMARKS
JAY*           NOT AVBL
DUKE FIELD     MOCLDY    68  57  67 NE3       30.11R
CRESTVIEW      MOCLDY    67  58  72 NE3       30.13R
6HR MIN TEMP:  64; 6HR MAX TEMP:  74; 6HR PCP:  0.02;

VALPARAISO     MOCLDY    70  57  63 E9        30.09S
6HR MIN TEMP:  65; 6HR MAX TEMP:  75; 6HR PCP: TRACE;

DESTIN         MOCLDY    73  59  61 NE7       30.10S
6HR MIN TEMP:  68; 6HR MAX TEMP:  77; 6HR PCP:  0.06;


$$

MSZ076-079-260100-
INTERIOR SOUTHEAST MISSISSIPPI

CITY           SKY/WX    TMP DP  RH WIND       PRES   REMARKS
LEAKESVILLE*     N/A     63  63 100 E3        30.09R
AGRICOLA*      NOT AVBL

$$

MARINE OBSERVATIONS

STATION/POSITION TIME  TEMP    WIND        PRES    WAVE
                       AIR SEA DIR/SP/G            HT/PER
                 (UTC) (F)     (DEG/KT/KT) (MB)    (FT/S)
PETIT BOIS ISLND 2348   67      80/ 12/ 16 1019.2R
KATRINA CUT      2330           90/ 16     1019.0R
CEDAR POINT      2330   68      90/ 13     1018.6R
E DAUPHIN ISLAND 0000   69      70/ 12/ 13 1018.4R
MIDDLE BAY LIGHT 2330   67      80/ 18     1018.0F
USCG MOBILE BAY  2348   65 68  100/  6/  7 1018.9R
STATE DOCKS      2348   65 64              1018.7R
MEAHER PARK      2330   65      60/  2     1019.0S
WEEKS BAY        2245   67                 1019.0S
FORT MORGAN      2348   68      90/ 12/ 15   N/A
12 S ORANGE BCH  NOT AVBL
PENSACOLA BAY    2342   71 71   40/  5/  7 1019.3F
64 S DAUPHIN ISL 0000   70 71   70/ 16/ 19 1018.1
67 S FORT MORGAN 2330   70                 1018.0R

$$

SELECTED LOCATIONS ACROSS THE REGION

CITY           SKY/WX    TMP DP  RH WIND       PRES   REMARKS
NEW ORLEANS    MOCLDY    70  63  78 SE16      30.02S
GULFPORT       FAIR      69  64  84 E13       30.05R
PASCAGOULA AP  MOCLDY    66  59  78 CALM      30.08R
PASCAGOULA*    NOT AVBL
HATTIESBURG    CLOUDY    63  62  97 E5        30.08R
LAUREL         MOCLDY    60  59  96 NE8       30.08R
MERIDIAN       LGT RAIN  56  54  93 NE5       30.11F FOG
JACKSON        RAIN      54  54 100 E3        30.07R
MONTGOMERY     CLOUDY    63  60  90 E5        30.15R
TROY           CLOUDY    65  57  75 NE3       30.14R
ASHFORD*         N/A     66  57  72 CALM      30.13R
DOTHAN         MOCLDY    67  57  70 NE5       30.17S
PANAMA CITY    CLOUDY    73  61  65 E6        30.10R

$$




USA.gov is the U.S. government's official web portal to all federal, state and local government web resources and services.